| time (UTC) | temp F | wind direction | speed knots | gust knots | rain 1hr in | rain 24hr in | rain mn in | humidity % | barometer mb |
| 20260509043050 | 46 | 173 | 6.1 | 0.0 | 0.00 | 0.00 | 0.00 | 47 | 975.6 |
| 20260509041533 | 47 | 171 | 7.0 | 0.0 | 0.00 | 0.00 | 0.00 | 47 | 975.6 |
| 20260509040108 | 47 | 176 | 6.1 | 0.0 | 0.00 | 0.00 | 0.00 | 47 | 975.6 |
| 20260509034533 | 48 | 182 | 6.1 | 0.0 | 0.00 | 0.00 | 0.00 | 40 | 976.3 |
| 20260509033049 | 48 | 171 | 5.2 | 0.0 | 0.00 | 0.00 | 0.00 | 38 | 977.0 |
| 20260509031533 | 49 | 170 | 5.2 | 0.0 | 0.00 | 0.00 | 0.00 | 38 | 977.0 |
| 20260509030105 | 49 | 172 | 5.2 | 0.0 | 0.00 | 0.00 | 0.00 | 38 | 977.0 |
| 20260509024533 | 50 | 178 | 5.2 | 0.0 | 0.00 | 0.00 | 0.00 | 30 | 977.6 |
| 20260509023051 | 50 | 188 | 5.2 | 0.0 | 0.00 | 0.00 | 0.00 | 29 | 977.4 |
| 20260509021533 | 50 | 200 | 5.2 | 0.0 | 0.00 | 0.00 | 0.00 | 29 | 977.3 |
| 20260509014533 | 52 | 220 | 4.3 | 0.0 | 0.00 | 0.00 | 0.00 | 31 | 977.3 |
| 20260509013048 | 52 | 236 | 3.5 | 0.0 | 0.00 | 0.00 | 0.00 | 31 | 977.3 |
| 20260509011533 | 53 | 250 | 4.3 | 0.0 | 0.00 | 0.00 | 0.00 | 31 | 977.3 |
| 20260509010058 | 53 | 255 | 4.3 | 0.0 | 0.00 | 0.00 | 0.00 | 31 | 977.3 |
| 20260509004532 | 54 | 252 | 4.3 | 0.0 | 0.00 | 0.00 | 0.00 | 25 | 977.1 |
| 20260509003050 | 55 | 253 | 4.3 | 0.0 | 0.00 | 0.00 | 0.00 | 26 | 978.4 |
| 20260509001532 | 56 | 258 | 4.3 | 0.0 | 0.00 | 0.00 | 0.00 | 26 | 978.4 |
| 20260509000107 | 58 | 262 | 5.2 | 0.0 | 0.00 | 0.00 | 0.00 | 26 | 978.4 |
| 20260508234533 | 59 | 261 | 7.0 | 0.0 | 0.00 | 0.00 | 0.00 | 22 | 977.7 |
| 20260508233052 | 59 | 263 | 7.8 | 0.0 | 0.00 | 0.00 | 0.00 | 22 | 977.9 |
| 20260508231535 | 60 | 262 | 8.7 | 0.0 | 0.00 | 0.00 | 0.00 | 22 | 977.9 |
| 20260508230058 | 60 | 266 | 8.7 | 0.0 | 0.00 | 0.00 | 0.00 | 22 | 977.9 |
| 20260508224534 | 60 | 265 | 8.7 | 0.0 | 0.00 | 0.00 | 0.00 | 22 | 978.1 |
| 20260508223053 | 60 | 266 | 10.4 | 0.0 | 0.00 | 0.00 | 0.00 | 21 | 979.0 |
| 20260508221535 | 61 | 265 | 10.4 | 0.0 | 0.00 | 0.00 | 0.00 | 21 | 979.0 |
| 20260508220059 | 61 | 263 | 10.4 | 0.0 | 0.00 | 0.00 | 0.00 | 21 | 979.0 |
| 20260508214535 | 61 | 262 | 10.4 | 0.0 | 0.00 | 0.00 | 0.00 | 21 | 979.5 |
| 20260508213052 | 61 | 260 | 10.4 | 0.0 | 0.00 | 0.00 | 0.00 | 22 | 979.0 |
| 20260508211535 | 62 | 254 | 10.4 | 0.0 | 0.00 | 0.00 | 0.00 | 22 | 979.0 |
| 20260508210103 | 62 | 255 | 10.4 | 0.0 | 0.00 | 0.00 | 0.00 | 22 | 979.0 |
| 20260508204535 | 62 | 251 | 10.4 | 0.0 | 0.00 | 0.00 | 0.00 | 24 | 979.0 |
| 20260508203053 | 62 | 245 | 10.4 | 0.0 | 0.00 | 0.00 | 0.00 | 22 | 978.9 |
| 20260508201535 | 62 | 245 | 9.6 | 0.0 | 0.00 | 0.00 | 0.00 | 22 | 979.0 |
| 20260508200100 | 62 | 244 | 8.7 | 0.0 | 0.00 | 0.00 | 0.00 | 22 | 979.0 |
| 20260508194535 | 62 | 244 | 8.7 | 0.0 | 0.00 | 0.00 | 0.00 | 21 | 979.2 |
| 20260508193050 | 62 | 242 | 8.7 | 0.0 | 0.00 | 0.00 | 0.00 | 21 | 979.2 |
| 20260508191534 | 62 | 252 | 8.7 | 0.0 | 0.00 | 0.00 | 0.00 | 21 | 979.2 |
| 20260508190058 | 62 | 251 | 7.8 | 0.0 | 0.00 | 0.00 | 0.00 | 21 | 979.2 |
| 20260508184534 | 62 | 246 | 7.8 | 0.0 | 0.00 | 0.00 | 0.00 | 25 | 979.5 |
| 20260508183054 | 61 | 240 | 9.6 | 0.0 | 0.00 | 0.00 | 0.00 | 26 | 979.2 |
| 20260508181534 | 61 | 241 | 9.6 | 0.0 | 0.00 | 0.00 | 0.00 | 26 | 979.2 |
| 20260508180103 | 61 | 243 | 8.7 | 0.0 | 0.00 | 0.00 | 0.00 | 26 | 979.2 |
| 20260508174535 | 60 | 241 | 9.6 | 0.0 | 0.00 | 0.00 | 0.00 | 31 | 980.2 |
| 20260508173053 | 60 | 245 | 9.6 | 0.0 | 0.00 | 0.00 | 0.00 | 31 | 980.2 |
| 20260508171534 | 59 | 244 | 8.7 | 0.0 | 0.00 | 0.00 | 0.00 | 31 | 980.2 |
| 20260508170100 | 59 | 249 | 8.7 | 0.0 | 0.00 | 0.00 | 0.00 | 30 | 980.2 |
| 20260508164534 | 58 | 248 | 8.7 | 0.0 | 0.00 | 0.00 | 0.00 | 38 | 980.5 |
| 20260508163053 | 58 | 240 | 7.8 | 0.0 | 0.00 | 0.00 | 0.00 | 38 | 980.7 |
| 20260508161535 | 56 | 233 | 7.8 | 0.0 | 0.00 | 0.00 | 0.00 | 38 | 980.7 |
| 20260508160104 | 55 | 226 | 7.0 | 0.0 | 0.00 | 0.00 | 0.00 | 38 | 980.7 |
| 20260508154535 | 55 | 217 | 7.0 | 0.0 | 0.00 | 0.00 | 0.00 | 42 | 981.7 |
| 20260508153055 | 54 | 203 | 7.0 | 0.0 | 0.00 | 0.00 | 0.00 | 45 | 980.6 |
| 20260508151535 | 53 | 198 | 6.1 | 0.0 | 0.00 | 0.00 | 0.00 | 45 | 980.6 |
| 20260508144535 | 51 | 196 | 5.2 | 0.0 | 0.00 | 0.00 | 0.00 | 57 | 980.8 |
| 20260508143052 | 51 | 198 | 4.3 | 0.0 | 0.00 | 0.00 | 0.00 | 61 | 981.0 |
| 20260508141535 | 50 | 197 | 4.3 | 0.0 | 0.00 | 0.00 | 0.00 | 61 | 981.0 |
| 20260508140110 | 49 | 195 | 4.3 | 0.0 | 0.00 | 0.00 | 0.00 | 63 | 980.8 |
| 20260508134535 | 48 | 193 | 4.3 | 0.0 | 0.00 | 0.00 | 0.00 | 73 | 980.6 |
| 20260508133050 | 46 | 194 | 5.2 | 0.0 | 0.00 | 0.00 | 0.00 | 73 | 980.6 |
| 20260508131535 | 45 | 194 | 5.2 | 0.0 | 0.00 | 0.00 | 0.00 | 73 | 980.6 |
| 20260508130107 | 43 | 186 | 5.2 | 0.0 | 0.00 | 0.00 | 0.00 | 73 | 980.6 |
| 20260508124535 | 42 | 182 | 5.2 | 0.0 | 0.00 | 0.00 | 0.00 | 84 | 980.0 |
| 20260508123053 | 42 | 192 | 4.3 | 0.0 | 0.00 | 0.00 | 0.00 | 82 | 980.4 |
| 20260508121535 | 41 | 183 | 2.6 | 0.0 | 0.00 | 0.00 | 0.00 | 82 | 980.4 |
| 20260508120114 | 39 | 175 | 1.7 | 0.0 | 0.00 | 0.00 | 0.00 | 82 | 980.4 |
| 20260508114534 | 37 | 171 | 1.7 | 0.0 | 0.00 | 0.00 | 0.00 | 80 | 979.9 |
| 20260508113056 | 36 | 172 | 2.6 | 0.0 | 0.00 | 0.00 | 0.00 | 77 | 980.6 |
| 20260508111534 | 36 | 146 | 3.5 | 0.0 | 0.00 | 0.00 | 0.00 | 77 | 980.6 |
| 20260508110100 | 35 | 139 | 3.5 | 0.0 | 0.00 | 0.00 | 0.00 | 77 | 980.6 |
| 20260508104537 | 35 | 130 | 2.6 | 0.0 | 0.00 | 0.00 | 0.00 | 74 | 979.8 |
| 20260508103054 | 35 | 113 | 2.6 | 0.0 | 0.00 | 0.00 | 0.00 | 73 | 980.8 |
| 20260508101537 | 36 | 119 | 1.7 | 0.0 | 0.00 | 0.00 | 0.00 | 73 | 980.8 |
| 20260508100100 | 37 | 121 | 1.7 | 0.0 | 0.00 | 0.00 | 0.00 | 73 | 980.8 |
| 20260508094536 | 37 | 119 | 1.7 | 0.0 | 0.00 | 0.00 | 0.00 | 74 | 980.1 |
| 20260508093050 | 37 | 126 | 2.6 | 0.0 | 0.00 | 0.00 | 0.00 | 75 | 980.8 |
| 20260508091537 | 37 | 170 | 2.6 | 0.0 | 0.00 | 0.00 | 0.00 | 75 | 980.8 |
| 20260508090104 | 37 | 166 | 3.5 | 0.0 | 0.00 | 0.00 | 0.00 | 75 | 980.8 |
| 20260508084536 | 37 | 164 | 3.5 | 0.0 | 0.00 | 0.00 | 0.00 | 68 | 980.4 |
| 20260508083055 | 38 | 186 | 3.5 | 0.0 | 0.00 | 0.00 | 0.00 | 77 | 980.2 |
| 20260508081536 | 38 | 183 | 3.5 | 0.0 | 0.00 | 0.00 | 0.00 | 77 | 980.1 |
| 20260508080105 | 38 | 180 | 3.5 | 0.0 | 0.00 | 0.00 | 0.00 | 77 | 980.1 |
| 20260508074537 | 38 | 180 | 3.5 | 0.0 | 0.00 | 0.00 | 0.00 | 76 | 980.9 |
| 20260508073055 | 39 | 182 | 4.3 | 0.0 | 0.00 | 0.00 | 0.00 | 76 | 980.9 |
| 20260508071535 | 39 | 202 | 4.3 | 0.0 | 0.00 | 0.00 | 0.00 | 76 | 980.9 |
| 20260508070106 | 39 | 197 | 4.3 | 0.0 | 0.00 | 0.00 | 0.00 | 76 | 980.9 |
| 20260508064535 | 40 | 180 | 3.5 | 0.0 | 0.00 | 0.00 | 0.00 | 75 | 980.8 |
| 20260508063051 | 40 | 193 | 1.7 | 0.0 | 0.00 | 0.00 | 0.00 | 76 | 981.1 |
| 20260508061536 | 41 | 176 | 2.6 | 0.0 | 0.00 | 0.00 | 0.00 | 76 | 981.2 |
| 20260508060116 | 41 | 163 | 2.6 | 0.0 | 0.00 | 0.00 | 0.00 | 76 | 981.2 |
| 20260508054535 | 41 | 143 | 2.6 | 0.0 | 0.00 | 0.00 | 0.00 | 74 | 981.8 |
| 20260508053055 | 41 | 128 | 2.6 | 0.0 | 0.00 | 0.00 | 0.00 | 70 | 981.4 |
| 20260508051534 | 41 | 95 | 3.5 | 0.0 | 0.00 | 0.00 | 0.00 | 70 | 981.4 |
| 20260508050106 | 41 | 79 | 3.5 | 0.0 | 0.00 | 0.00 | 0.00 | 70 | 981.4 |
| 20260508044534 | 41 | 68 | 3.5 | 0.0 | 0.00 | 0.00 | 0.00 | 69 | 981.8 |